Terminal Aerodrome Forecast
Issued by NWS

Home | Current Version | Previous Version | Text Only | Print | Product List | Glossary On
Versions: 1 2 3 4 5 6 7 8 9 10 11 12 13 14 15 16 17 18 19 20 21 22 23 24 25 26 27 28 29 30 31 32
000
FTUS45 KCYS 012300
TAFAIA
TAF
KAIA 012339Z 0200/0224 34013KT P6SM -SHRA SCT070 BKN110
     FM020500 33005KT P6SM SCT150
     FM021900 31010G19KT P6SM SCT200=

USA.gov is the U.S. government's official web portal to all federal, state and local government web resources and services.